[[{"header":{"parameterUnit":"m.s-1","parameterCategory":1,"la1":30.2991,"la2":30.254,"lo1":-89.0895,"lo2":-89.0444,"dy":0.0017,"dx":0.0017,"nx":28,"ny":28,"refTime":"2025-03-22T09:00:00:Z","depth":0,"parameterNumber":2,"parameterNumberName":"U-component_of_WINDS"},"data":[0,0,0,0,0,0,0,0,0,0,0,0,0,0,0,0,0,0,0,0,0,0,0,0,0,0,0,0,0,0,0,0,0,0,0,0,0,0,0,0,0,0,0,0,0,0,0,0,0,0,0,0,0,0,0,0,0,0,0.358,0.3581,0,0.3693,0.3694,0.3696,0.3709,0.3708,0.3707,0.3706,0.383,0.3834,0.3838,0,0,0,0,0,0,0,0,0,0,0,0,0,0.3385,0.3389,0.358,0.3581,0.3583,0.3693,0.3694,0.3696,0.371,0.3708,0.3707,0.3705,0.3828,0.3834,0.3839,0,0,0,0,0,0,0,0,0,0,0,0,0,0.3481,0.339,0.358,0.3603,0.3606,0.3692,0.3694,0.3696,0.371,0.3708,0.3706,0.3705,0.3827,0.3833,0.3839,0.3914,0,0,0.3859,0.3862,0,0,0,0,0,0,0,0,0.3476,0.3488,0.3598,0.3601,0.3605,0.3685,0.3671,0.3769,0.371,0.3671,0.3706,0.3704,0.3784,0.3794,0.3819,0.3919,0.3925,0.386,0.3864,0.3867,0.3869,0,0,0,0,0,0,0,0.3469,0.3484,0.3625,0.3599,0.3604,0.361,0.3622,0.369,0.3736,0.3674,0.3675,0.3688,0.3785,0.3812,0.3822,0.3927,0.386,0.3866,0.387,0.3872,0.4098,0.41,0,0,0,0,0,0,0.3457,0.3478,0.3621,0.3628,0.3535,0.3615,0.3628,0.3661,0.3735,0.3744,0.3689,0.3688,0.3802,0.3814,0.3826,0.392,0.3867,0.3873,0.3877,0.4096,0.4098,0.41,0,0,0,0,0,0,0.3453,0.347,0.3617,0.3554,0.3573,0.362,0.3657,0.3664,0.3691,0.3746,0.3755,0.3708,0.3801,0.3817,0.3892,0.3925,0.3876,0.3882,0.4093,0.4096,0.4099,0.4107,0,0,0,0,0,0,0.3447,0.3468,0.3494,0.3554,0.3576,0.3678,0.3659,0.3668,0.3702,0.3701,0.3766,0.3775,0.3801,0.3882,0.3898,0.3933,0.3887,0.4091,0.4095,0.4098,0.4104,0.411,0.4115,0,0,0,0,0,0.344,0.3493,0.3495,0.3513,0.3609,0.3679,0.3693,0.3719,0.3704,0.3733,0.3768,0.3773,0.3918,0.389,0.3908,0.3945,0.4089,0.4094,0.4098,0.4102,0.4109,0.4115,0,0,0,0,0,0,0.3438,0.3501,0.3505,0.3578,0.3623,0.3682,0.3718,0.3725,0.3777,0.3775,0.3808,0.3823,0.3897,0.3928,0.3896,0.4022,0.4003,0.4011,0.3999,0.4006,0.4012,0.4003,0.3892,0,0,0,0,0,0.3446,0.3495,0.3548,0.3608,0.363,0.367,0.3702,0.3718,0.3767,0.3787,0.3828,0.3878,0.3936,0.3972,0.4028,0.4109,0.4125,0.4143,0.4149,0.4153,0.4161,0.4209,0.4219,0.4116,0.4116,0.4116,0,0,0.3463,0.3503,0.3533,0.3609,0.3645,0.3699,0.3686,0.3742,0.3783,0.3797,0.387,0.3902,0.396,0.4039,0.4076,0.4068,0.4193,0.4159,0.4162,0.4167,0.4215,0.4225,0.4233,0.4119,0.4118,0.4118,0,0,0.3522,0.3556,0.361,0.3647,0.3703,0.3729,0.3743,0.3801,0.3822,0.3895,0.3907,0.3958,0.4055,0.4097,0.4131,0.4207,0.4215,0.4225,0.4254,0.4301,0.4309,0.4317,0.4347,0.4357,0.4232,0.4232,0.4232,0,0.3537,0.3614,0.3638,0.3694,0.3729,0.3741,0.3799,0.3835,0.3907,0.3932,0.3921,0.4044,0.4084,0.4174,0.4193,0.4219,0.4238,0.4218,0.4305,0.4313,0.4321,0.435,0.4361,0.4233,0.4233,0.4233,0.4233,0,0.3632,0.3685,0.3723,0.379,0.3829,0.3886,0.3922,0.3959,0.3972,0.4001,0.4078,0.4126,0.4193,0.4216,0.423,0.4309,0.4303,0.4298,0.4279,0.4331,0.4359,0.437,0.4234,0.4234,0.4234,0.4233,0,0,0.3692,0.3772,0.3786,0.3817,0.388,0.3924,0.3983,0.4046,0.4079,0.4128,0.4181,0.4263,0.426,0.4299,0.4318,0.4359,0.442,0.435,0.4352,0.4364,0.4515,0.4519,0.4531,0.4425,0.4427,0.4429,0.4511,0,0.3759,0.3861,0.3886,0.3975,0.4027,0.4041,0.4093,0.4139,0.4168,0.4219,0.4253,0.4311,0.4301,0.4325,0.4366,0.4404,0.4452,0.4398,0.4478,0.4481,0.4465,0.4546,0.455,0.4624,0.4522,0.4523,0.4525,0,0.3851,0.3901,0.3995,0.4053,0.4076,0.4122,0.4183,0.4231,0.4285,0.4304,0.4347,0.4363,0.4429,0.4405,0.4499,0.4462,0.4496,0.4521,0.4524,0.4534,0.4507,0.456,0.4648,0.466,0.4542,0.454,0.4539,0,0.3889,0.398,0.4048,0.4075,0.4144,0.4176,0.4207,0.4259,0.4297,0.4351,0.4376,0.4439,0.4473,0.4523,0.4557,0.4536,0.4648,0.4627,0.4669,0.4668,0.4693,0.4692,0.479,0.4712,0.4712,0.4711,0.4711,0,0.3963,0.4021,0.4066,0.4109,0.4175,0.4204,0.427,0.4301,0.4348,0.4399,0.4416,0.4464,0.4505,0.456,0.4587,0.4662,0.4677,0.4697,0.4704,0.4697,0.4694,0.4721,0.4717,0.4714,0.4714,0.4713,0.4713,0,0.4017,0.4049,0.4125,0.4184,0.4201,0.4247,0.4299,0.4343,0.4373,0.4438,0.4455,0.4503,0.4569,0.4607,0.4691,0.4709,0.4794,0.4797,0.4774,0.4778,0.4819,0.4815,0.494,0.4959,0.4865,0.4866,0.4867,0,0.4062,0.4107,0.417,0.4205,0.4236,0.4291,0.4329,0.436,0.44,0.4466,0.4503,0.4569,0.4624,0.473,0.4774,0.4839,0.4846,0.4885,0.4856,0.4848,0.485,0.4848,0.4854,0.4891,0.4892,0.4892,0.4893,0,0.4141,0.4155,0.4208,0.4267,0.4311,0.4359,0.4408,0.4436,0.4476,0.452,0.4587,0.4629,0.4715,0.4782,0.4851,0.4887,0.4898,0.4901,0.4915,0.4909,0.4895,0.4906,0.479,0.4899,0.4898,0.4898,0.4897,0.4897,0.4194,0.4235,0.4287,0.4346,0.4385,0.443,0.4475,0.451,0.4565,0.4635,0.4651,0.4722,0.4779,0.4872,0.491,0.4968,0.4962,0.4981,0.4986,0.4991,0.4994,0.4884,0.4981,0.4981,0.4981,0.4981,0.4981,0,0.4276,0.431,0.4363,0.443,0.4477,0.448,0.4535,0.4576,0.4637,0.4687,0.4741,0.4819,0.4885,0.4935,0.5003,0.5041,0.5048,0.5058,0.5057,0.5066,0.4994,0.4977,0.5051,0.5051,0.5051,0.5051,0.5051,0.5051,0.4324,0.4394,0.4415,0.4507,0.4541,0.4609,0.464,0.4684,0.4724,0.481,0.4864,0.4895,0.4947,0.502,0.5082,0.5095,0.5121,0.513,0.5145,0.5078,0.507,0.5063,0.5047,0.5135,0.5135,0.5212,0.5212,0.5213]},{"header":{"parameterUnit":"m.s-1","parameterCategory":1,"la1":30.2991,"la2":30.254,"lo1":-89.0895,"lo2":-89.0444,"dy":0.0017,"dx":0.0017,"nx":28,"ny":28,"refTime":"2025-03-22T09:00:00:Z","depth":0,"parameterNumber":3,"parameterNumberName":"V-component_of_WINDS"},"data":[0,0,0,0,0,0,0,0,0,0,0,0,0,0,0,0,0,0,0,0,0,0,0,0,0,0,0,0,0,0,0,0,0,0,0,0,0,0,0,0,0,0,0,0,0,0,0,0,0,0,0,0,0,0,0,0,0,0,0.1099,0.1099,0,0.11,0.11,0.11,0.1075,0.1074,0.1073,0.1073,0.1076,0.1077,0.1077,0,0,0,0,0,0,0,0,0,0,0,0,0,0.1078,0.1078,0.1099,0.1099,0.1099,0.11,0.11,0.11,0.1075,0.1074,0.1073,0.1072,0.1076,0.1076,0.1077,0,0,0,0,0,0,0,0,0,0,0,0,0,0.1084,0.1078,0.1099,0.1087,0.1085,0.11,0.11,0.11,0.1075,0.1074,0.1073,0.1072,0.1075,0.1076,0.1077,0.1105,0,0,0.1081,0.1081,0,0,0,0,0,0,0,0,0.1084,0.1085,0.1088,0.1087,0.1086,0.1086,0.1094,0.1102,0.1075,0.1079,0.1073,0.1071,0.108,0.1081,0.1083,0.1105,0.1106,0.1081,0.1082,0.1082,0.1082,0,0,0,0,0,0,0,0.1083,0.1084,0.11,0.1088,0.1087,0.1082,0.1081,0.1095,0.1086,0.1079,0.1077,0.1077,0.108,0.1082,0.1083,0.1106,0.1081,0.1082,0.1083,0.1083,0.1153,0.1154,0,0,0,0,0,0,0.1084,0.1084,0.11,0.11,0.1082,0.1083,0.1083,0.1087,0.1085,0.1084,0.1078,0.1076,0.1081,0.1082,0.1083,0.1118,0.1082,0.1083,0.1084,0.1152,0.1153,0.1154,0,0,0,0,0,0,0.1084,0.1086,0.11,0.1091,0.1093,0.1084,0.109,0.1088,0.1091,0.1085,0.1083,0.1083,0.108,0.1082,0.11,0.1117,0.1084,0.1085,0.115,0.1152,0.1154,0.1185,0,0,0,0,0,0,0.1083,0.1086,0.1095,0.1092,0.1093,0.1116,0.1091,0.1089,0.1093,0.109,0.1089,0.1088,0.108,0.1099,0.1102,0.1118,0.1086,0.1149,0.1151,0.1153,0.1183,0.1188,0.1192,0,0,0,0,0,0.1083,0.1104,0.1096,0.1098,0.1105,0.1117,0.1118,0.1107,0.1094,0.1104,0.1101,0.1088,0.1115,0.1101,0.1104,0.1121,0.1148,0.115,0.1153,0.1181,0.1187,0.1192,0,0,0,0,0,0,0.1111,0.1104,0.1094,0.1115,0.1117,0.1112,0.1125,0.1114,0.112,0.1117,0.1105,0.1105,0.1126,0.1125,0.111,0.1149,0.1129,0.1132,0.1149,0.1155,0.116,0.116,0.1086,0,0,0,0,0,0.1119,0.1128,0.1122,0.1141,0.1142,0.1134,0.1138,0.113,0.1132,0.1132,0.113,0.1132,0.1142,0.1148,0.1156,0.1182,0.1183,0.1195,0.12,0.1204,0.1208,0.1224,0.123,0.1163,0.1163,0.1163,0,0,0.1137,0.1134,0.1141,0.1147,0.1147,0.1158,0.1134,0.1147,0.1155,0.1134,0.1152,0.115,0.1153,0.1176,0.1186,0.1176,0.1226,0.1208,0.1211,0.1212,0.1227,0.1234,0.124,0.1165,0.1165,0.1164,0,0,0.1176,0.1174,0.1191,0.1192,0.1192,0.1186,0.119,0.1188,0.1186,0.1203,0.1188,0.1199,0.1214,0.1217,0.122,0.1261,0.125,0.1264,0.129,0.1306,0.1311,0.1316,0.1333,0.1339,0.1267,0.1267,0.1267,0,0.1199,0.1214,0.1201,0.1215,0.1219,0.1199,0.1217,0.1219,0.1222,0.1226,0.1214,0.1234,0.1234,0.1259,0.1269,0.1272,0.1277,0.1265,0.1311,0.1316,0.132,0.1336,0.1342,0.1269,0.1269,0.1269,0.1269,0,0.1243,0.1254,0.1267,0.1271,0.1276,0.1292,0.1282,0.1289,0.1281,0.1277,0.1296,0.1295,0.1304,0.1308,0.13,0.1333,0.1327,0.1313,0.1293,0.1328,0.1343,0.1349,0.1272,0.1271,0.1271,0.127,0,0,0.13,0.1297,0.1302,0.1304,0.1304,0.1312,0.1328,0.1335,0.1343,0.1346,0.136,0.1374,0.1362,0.1366,0.1358,0.1371,0.1407,0.1357,0.1356,0.1368,0.1445,0.1457,0.1464,0.1399,0.14,0.1401,0.1446,0,0.134,0.1365,0.1355,0.1382,0.1393,0.1375,0.1389,0.1391,0.1388,0.1397,0.1394,0.1405,0.1387,0.139,0.1402,0.14,0.1422,0.1396,0.1414,0.1415,0.1416,0.1471,0.1483,0.1526,0.1451,0.1452,0.1453,0,0.1389,0.1394,0.1423,0.1422,0.1426,0.1438,0.1445,0.1454,0.1457,0.1453,0.1458,0.1448,0.1464,0.1443,0.1467,0.145,0.1456,0.1456,0.1458,0.146,0.1437,0.1478,0.1538,0.1546,0.1461,0.1461,0.146,0,0.1431,0.1445,0.1464,0.1466,0.1465,0.1474,0.1474,0.1475,0.1481,0.1488,0.1492,0.15,0.1505,0.1513,0.1505,0.149,0.1532,0.1509,0.1531,0.1532,0.1542,0.1542,0.1607,0.1543,0.1543,0.1543,0.1543,0,0.1478,0.1496,0.1483,0.1495,0.1516,0.1504,0.1525,0.1523,0.1525,0.1537,0.1522,0.1534,0.1523,0.1535,0.1529,0.1551,0.1553,0.1552,0.1551,0.1555,0.1555,0.1561,0.1558,0.1544,0.1544,0.1544,0.1543,0,0.1529,0.152,0.1541,0.1537,0.1537,0.1553,0.1551,0.1563,0.1558,0.1574,0.1577,0.1571,0.1584,0.1577,0.1591,0.1587,0.1617,0.161,0.1616,0.1615,0.1638,0.1637,0.1711,0.1721,0.1648,0.1649,0.1649,0,0.156,0.1574,0.1572,0.1579,0.158,0.1591,0.1597,0.1586,0.1593,0.1598,0.161,0.1621,0.163,0.1652,0.165,0.1661,0.1656,0.1681,0.1658,0.1662,0.1659,0.1659,0.1662,0.1686,0.1687,0.1688,0.1688,0,0.1617,0.1613,0.1621,0.1629,0.1636,0.1642,0.1646,0.1653,0.1642,0.1651,0.1664,0.1671,0.1685,0.1698,0.1708,0.1709,0.1698,0.1696,0.1702,0.1707,0.1711,0.1711,0.1631,0.1694,0.1694,0.1693,0.1693,0.1693,0.1661,0.1673,0.1674,0.1685,0.1687,0.1692,0.1703,0.17,0.1711,0.1721,0.1714,0.173,0.1733,0.1745,0.1748,0.1762,0.1752,0.176,0.1763,0.1765,0.177,0.1707,0.1763,0.1763,0.1763,0.1762,0.1762,0,0.1719,0.1719,0.1729,0.1736,0.1745,0.1731,0.1736,0.1745,0.1759,0.1763,0.1772,0.1788,0.1801,0.1799,0.1811,0.1822,0.1818,0.1826,0.1826,0.1827,0.1777,0.1771,0.183,0.183,0.183,0.183,0.183,0.183,0.1751,0.1772,0.1767,0.1789,0.1789,0.1804,0.1808,0.1814,0.1817,0.1835,0.1845,0.1844,0.1846,0.1858,0.187,0.1869,0.1875,0.1886,0.1884,0.1837,0.183,0.1824,0.1819,0.1887,0.1887,0.1934,0.1934,0.1935]}]]